,,,PA_Meas_PMT16A,,PR_Meas_QMR101_102,,RH_Meas_QMH101,,SR_Meas_QMS101,,TA_Meas_QMH101,,GenWind,,GenWind,
date,time,status,PA,status,PR,status,RH,status,SR,status,TA,status,DirAvg,status,SpdAvg,
2011-10-05, 00:00:04,VALID,1010.103,VALID,0.0,VALID,104.0,VALID,0.0,VALID,22.954,VALID,49.0,VALID,0.768,
2011-10-05, 00:01:04,VALID,1010.094,VALID,0.0,VALID,104.0,VALID,0.0,VALID,22.954,VALID,59.0,VALID,0.535,
2011-10-05, 00:02:04,VALID,1010.091,VALID,0.0,VALID,104.0,VALID,0.0,VALID,22.915,VALID,70.0,VALID,1.195,
2011-10-05, 00:03:04,VALID,1010.085,VALID,0.0,VALID,104.0,VALID,0.0,VALID,22.934,VALID,64.0,VALID,1.043,
2011-10-05, 00:04:04,VALID,1010.061,VALID,0.0,VALID,104.0,VALID,0.0,VALID,22.934,VALID,60.0,VALID,1.317,
2011-10-05, 00:05:04,VALID,1010.064,VALID,0.0,VALID,104.0,VALID,0.0,VALID,22.934,VALID,52.0,VALID,0.763,
2011-10-05, 00:06:04,VALID,1010.107,VALID,0.0,VALID,104.0,VALID,0.0,VALID,22.915,VALID,51.0,VALID,0.323,
2011-10-05, 00:07:04,VALID,1010.099,VALID,0.0,VALID,104.0,VALID,0.0,VALID,22.895,VALID,43.0,VALID,0.688,
2011-10-05, 00:08:04,VALID,1010.103,VALID,0.0,VALID,104.0,VALID,0.0,VALID,22.895,VALID,22.0,VALID,0.459,
2011-10-05, 00:09:04,VALID,1010.118,VALID,0.0,VALID,104.0,VALID,0.0,VALID,22.856,VALID,27.0,VALID,0.578,
2011-10-05, 00:10:04,VALID,1010.111,VALID,0.0,VALID,104.0,VALID,0.0,VALID,22.856,VALID,71.0,VALID,0.309,
2011-10-05, 00:11:04,VALID,1010.091,VALID,0.0,VALID,104.0,VALID,0.0,VALID,22.837,VALID,62.0,VALID,1.208,
2011-10-05, 00:12:04,VALID,1010.037,VALID,0.0,VALID,104.0,VALID,0.0,VALID,22.798,VALID,48.0,VALID,1.117,
2011-10-05, 00:13:04,VALID,1010.009,VALID,0.0,VALID,104.0,VALID,0.0,VALID,22.778,VALID,57.0,VALID,1.573,
2011-10-05, 00:14:04,VALID,1009.96,VALID,0.0,VALID,104.0,VALID,0.0,VALID,22.798,VALID,67.0,VALID,1.264,
2011-10-05, 00:15:04,VALID,1009.969,VALID,0.0,VALID,104.0,VALID,0.0,VALID,22.798,VALID,84.0,VALID,1.48,
2011-10-05, 00:16:04,VALID,1009.938,VALID,0.0,VALID,104.0,VALID,0.0,VALID,22.778,VALID,87.0,VALID,1.986,
2011-10-05, 00:17:04,VALID,1009.954,VALID,0.0,VALID,104.0,VALID,0.0,VALID,22.778,VALID,87.0,VALID,1.097,
2011-10-05, 00:18:04,VALID,1009.94,VALID,0.0,VALID,104.0,VALID,0.0,VALID,22.778,VALID,90.0,VALID,0.875,
2011-10-05, 00:19:04,VALID,1009.948,VALID,0.0,VALID,104.0,VALID,0.0,VALID,22.778,VALID,115.0,VALID,1.018,
2011-10-05, 00:20:04,VALID,1009.925,VALID,0.0,VALID,104.0,VALID,0.0,VALID,22.739,VALID,90.0,VALID,1.601,
2011-10-05, 00:21:04,VALID,1009.848,VALID,0.0,VALID,104.0,VALID,0.0,VALID,22.718,VALID,85.0,VALID,1.687,
2011-10-05, 00:22:04,VALID,1009.799,VALID,0.0,VALID,104.0,VALID,0.0,VALID,22.72,VALID,90.0,VALID,1.741,
2011-10-05, 00:23:04,VALID,1009.79,VALID,0.0,VALID,104.0,VALID,0.0,VALID,22.739,VALID,74.0,VALID,1.5,
2011-10-05, 00:24:04,VALID,1009.769,VALID,0.0,VALID,104.0,VALID,0.0,VALID,22.72,VALID,81.0,VALID,1.473,
2011-10-05, 00:25:04,VALID,1009.706,VALID,0.0,VALID,104.0,VALID,0.0,VALID,22.7,VALID,61.0,VALID,1.677,
2011-10-05, 00:26:04,VALID,1009.697,VALID,0.0,VALID,104.0,VALID,0.0,VALID,22.7,VALID,79.0,VALID,1.59,
2011-10-05, 00:27:04,VALID,1009.682,VALID,0.0,VALID,104.0,VALID,0.0,VALID,22.681,VALID,73.0,VALID,1.255,
2011-10-05, 00:28:04,VALID,1009.649,VALID,0.0,VALID,104.0,VALID,0.0,VALID,22.7,VALID,51.0,VALID,1.225,
2011-10-05, 00:29:04,VALID,1009.598,VALID,0.0,VALID,104.0,VALID,0.0,VALID,22.681,VALID,79.0,VALID,1.357,
2011-10-05, 00:30:04,VALID,1009.623,VALID,0.0,VALID,104.0,VALID,0.0,VALID,22.642,VALID,73.0,VALID,1.499,
2011-10-05, 00:31:04,VALID,1009.599,VALID,0.0,VALID,104.0,VALID,0.0,VALID,22.661,VALID,82.0,VALID,1.952,
2011-10-05, 00:32:04,VALID,1009.599,VALID,0.0,VALID,104.0,VALID,0.0,VALID,22.642,VALID,86.0,VALID,1.654,
2011-10-05, 00:33:04,VALID,1009.583,VALID,0.0,VALID,104.0,VALID,0.0,VALID,22.64,VALID,41.0,VALID,1.47,
2011-10-05, 00:34:04,VALID,1009.565,VALID,0.0,VALID,104.0,VALID,0.0,VALID,22.661,VALID,61.0,VALID,1.266,
2011-10-05, 00:35:04,VALID,1009.538,VALID,0.0,VALID,104.0,VALID,0.0,VALID,22.661,VALID,65.0,VALID,1.341,
2011-10-05, 00:36:04,VALID,1009.527,VALID,0.0,VALID,104.0,VALID,0.0,VALID,22.661,VALID,77.0,VALID,1.609,
2011-10-05, 00:37:04,VALID,1009.521,VALID,0.0,VALID,104.0,VALID,0.0,VALID,22.681,VALID,77.0,VALID,1.316,
2011-10-05, 00:38:04,VALID,1009.496,VALID,0.0,VALID,104.0,VALID,0.0,VALID,22.681,VALID,79.0,VALID,0.985,
2011-10-05, 00:39:04,VALID,1009.527,VALID,0.0,VALID,104.0,VALID,0.0,VALID,22.7,VALID,68.0,VALID,1.395,
2011-10-05, 00:40:04,VALID,1009.539,VALID,0.0,VALID,104.0,VALID,0.0,VALID,22.681,VALID,67.0,VALID,0.895,
2011-10-05, 00:41:04,VALID,1009.61,VALID,0.0,VALID,104.0,VALID,0.0,VALID,22.681,VALID,84.0,VALID,0.64,
2011-10-05, 00:42:04,VALID,1009.69,VALID,0.0,VALID,104.0,VALID,0.0,VALID,22.7,VALID,116.0,VALID,1.098,
2011-10-05, 00:43:04,VALID,1009.715,VALID,0.0,VALID,104.0,VALID,0.0,VALID,22.681,VALID,98.0,VALID,0.302,
2011-10-05, 00:44:04,VALID,1009.717,VALID,0.0,VALID,104.0,VALID,0.0,VALID,22.72,VALID,98.0,VALID,0.212,
2011-10-05, 00:45:04,VALID,1009.691,VALID,0.0,VALID,104.0,VALID,0.0,VALID,22.72,VALID,98.0,VALID,0.062,
2011-10-05, 00:46:04,VALID,1009.683,VALID,0.0,VALID,104.0,VALID,0.0,VALID,22.72,VALID,97.0,VALID,0.324,
2011-10-05, 00:47:04,VALID,1009.666,VALID,0.5,VALID,104.0,VALID,0.0,VALID,22.72,VALID,97.0,VALID,0.177,
2011-10-05, 00:48:04,VALID,1009.633,VALID,0.0,VALID,104.0,VALID,0.0,VALID,22.722,VALID,97.0,VALID,0.417,
2011-10-05, 00:49:04,VALID,1009.603,VALID,0.0,VALID,104.0,VALID,0.0,VALID,22.739,VALID,97.0,VALID,0.13,
2011-10-05, 00:50:04,VALID,1009.575,VALID,0.0,VALID,104.0,VALID,0.0,VALID,22.739,VALID,84.0,VALID,0.541,
2011-10-05, 00:51:04,VALID,1009.587,VALID,0.0,VALID,104.0,VALID,0.0,VALID,22.739,VALID,74.0,VALID,0.272,
2011-10-05, 00:52:04,VALID,1009.587,VALID,0.0,VALID,104.0,VALID,0.0,VALID,22.72,VALID,60.0,VALID,0.776,
2011-10-05, 00:53:04,VALID,1009.548,VALID,0.0,VALID,104.0,VALID,0.0,VALID,22.72,VALID,78.0,VALID,0.562,
2011-10-05, 00:54:04,VALID,1009.524,VALID,0.0,VALID,104.0,VALID,0.0,VALID,22.7,VALID,60.0,VALID,0.652,
2011-10-05, 00:55:04,VALID,1009.521,VALID,0.0,VALID,104.0,VALID,0.0,VALID,22.7,VALID,60.0,VALID,0.486,
2011-10-05, 00:56:04,VALID,1009.529,VALID,0.0,VALID,104.0,VALID,0.0,VALID,22.72,VALID,58.0,VALID,0.534,
2011-10-05, 00:57:04,VALID,1009.517,VALID,0.0,VALID,104.0,VALID,0.0,VALID,22.7,VALID,53.0,VALID,0.473,
2011-10-05, 00:58:04,VALID,1009.478,VALID,0.0,VALID,104.0,VALID,0.0,VALID,22.7,VALID,53.0,VALID,0.509,
2011-10-05, 00:59:04,VALID,1009.436,VALID,0.0,VALID,104.0,VALID,0.0,VALID,22.72,VALID,48.0,VALID,0.62,
2011-10-05, 01:00:04,VALID,1009.407,VALID,0.0,VALID,104.0,VALID,0.0,VALID,22.7,VALID,43.0,VALID,0.475,
2011-10-05, 01:01:04,VALID,1009.406,VALID,0.0,VALID,104.0,VALID,0.0,VALID,22.679,VALID,42.0,VALID,0.634,
2011-10-05, 01:02:04,VALID,1009.355,VALID,0.0,VALID,104.0,VALID,0.0,VALID,22.7,VALID,39.0,VALID,0.479,
2011-10-05, 01:03:04,VALID,1009.353,VALID,0.0,VALID,104.0,VALID,0.0,VALID,22.679,VALID,39.0,VALID,0.375,
2011-10-05, 01:04:04,VALID,1009.373,VALID,0.0,VALID,104.0,VALID,0.112,VALID,22.7,VALID,39.0,VALID,0.142,
2011-10-05, 01:05:04,VALID,1009.411,VALID,0.0,VALID,104.0,VALID,0.0,VALID,22.72,VALID,48.0,VALID,0.539,
2011-10-05, 01:06:04,VALID,1009.448,VALID,0.0,VALID,104.0,VALID,0.0,VALID,22.739,VALID,134.0,VALID,0.882,
2011-10-05, 01:07:04,VALID,1009.477,VALID,0.0,VALID,104.0,VALID,0.0,VALID,22.72,VALID,126.0,VALID,0.745,
2011-10-05, 01:08:04,VALID,1009.5,VALID,0.0,VALID,104.0,VALID,0.0,VALID,22.739,VALID,152.0,VALID,1.195,
2011-10-05, 01:09:04,VALID,1009.499,VALID,0.0,VALID,104.0,VALID,0.0,VALID,22.739,VALID,148.0,VALID,1.369,
2011-10-05, 01:10:04,VALID,1009.513,VALID,0.0,VALID,104.0,VALID,0.0,VALID,22.759,VALID,148.0,VALID,1.39,
2011-10-05, 01:11:04,VALID,1009.525,VALID,0.0,VALID,104.0,VALID,0.0,VALID,22.739,VALID,145.0,VALID,1.267,
2011-10-05, 01:12:04,VALID,1009.511,VALID,0.0,VALID,104.0,VALID,0.0,VALID,22.739,VALID,155.0,VALID,1.392,
2011-10-05, 01:13:04,VALID,1009.535,VALID,0.0,VALID,104.0,VALID,0.0,VALID,22.739,VALID,167.0,VALID,1.548,
2011-10-05, 01:14:04,VALID,1009.541,VALID,0.0,VALID,104.0,VALID,0.0,VALID,22.739,VALID,153.0,VALID,1.272,
2011-10-05, 01:15:04,VALID,1009.506,VALID,0.0,VALID,104.0,VALID,0.0,VALID,22.739,VALID,151.0,VALID,0.767,
2011-10-05, 01:16:04,VALID,1009.525,VALID,0.0,VALID,104.0,VALID,0.0,VALID,22.72,VALID,143.0,VALID,1.488,
2011-10-05, 01:17:04,VALID,1009.563,VALID,0.0,VALID,104.0,VALID,0.0,VALID,22.741,VALID,154.0,VALID,1.64,
2011-10-05, 01:18:04,VALID,1009.569,VALID,0.0,VALID,104.0,VALID,0.0,VALID,22.739,VALID,150.0,VALID,1.122,
2011-10-05, 01:19:04,VALID,1009.572,VALID,0.0,VALID,104.0,VALID,0.0,VALID,22.739,VALID,146.0,VALID,0.887,
2011-10-05, 01:20:04,VALID,1009.607,VALID,0.0,VALID,104.0,VALID,0.0,VALID,22.739,VALID,148.0,VALID,0.525,
2011-10-05, 01:21:04,VALID,1009.661,VALID,0.0,VALID,104.0,VALID,0.0,VALID,22.759,VALID,169.0,VALID,1.015,
2011-10-05, 01:22:04,VALID,1009.737,VALID,0.0,VALID,104.0,VALID,0.0,VALID,22.739,VALID,178.0,VALID,1.13,
2011-10-05, 01:23:04,VALID,1009.76,VALID,0.0,VALID,104.0,VALID,0.112,VALID,22.739,VALID,175.0,VALID,1.039,
2011-10-05, 01:24:04,VALID,1009.759,VALID,0.0,VALID,104.0,VALID,0.0,VALID,22.741,VALID,148.0,VALID,0.806,
2011-10-05, 01:25:04,VALID,1009.759,VALID,0.0,VALID,104.0,VALID,0.0,VALID,22.739,VALID,126.0,VALID,0.974,
2011-10-05, 01:26:04,VALID,1009.786,VALID,0.0,VALID,104.0,VALID,0.0,VALID,22.759,VALID,124.0,VALID,1.164,
2011-10-05, 01:27:04,VALID,1009.787,VALID,0.0,VALID,104.0,VALID,0.0,VALID,22.8,VALID,126.0,VALID,1.26,
2011-10-05, 01:28:04,VALID,1009.858,VALID,0.0,VALID,104.0,VALID,0.0,VALID,22.798,VALID,133.0,VALID,0.768,
2011-10-05, 01:29:04,VALID,1009.852,VALID,0.0,VALID,104.0,VALID,0.0,VALID,22.817,VALID,128.0,VALID,0.811,
2011-10-05, 01:30:04,VALID,1009.824,VALID,0.0,VALID,104.0,VALID,0.0,VALID,22.817,VALID,134.0,VALID,1.116,
2011-10-05, 01:31:04,VALID,1009.793,VALID,0.0,VALID,104.0,VALID,0.0,VALID,22.837,VALID,107.0,VALID,0.482,
2011-10-05, 01:32:04,VALID,1009.777,VALID,0.0,VALID,104.0,VALID,0.0,VALID,22.837,VALID,101.0,VALID,0.897,
2011-10-05, 01:33:04,VALID,1009.783,VALID,0.0,VALID,104.0,VALID,0.0,VALID,22.856,VALID,95.0,VALID,0.245,
2011-10-05, 01:34:04,VALID,1009.824,VALID,0.0,VALID,104.0,VALID,0.112,VALID,22.837,VALID,88.0,VALID,0.602,
2011-10-05, 01:35:04,VALID,1009.803,VALID,0.0,VALID,104.0,VALID,0.0,VALID,22.856,VALID,77.0,VALID,0.685,
2011-10-05, 01:36:04,VALID,1009.72,VALID,0.0,VALID,104.0,VALID,0.0,VALID,22.856,VALID,73.0,VALID,0.466,
2011-10-05, 01:37:04,VALID,1009.73,VALID,0.0,VALID,104.0,VALID,0.0,VALID,22.876,VALID,356.0,VALID,0.889,
2011-10-05, 01:38:04,VALID,1009.801,VALID,0.0,VALID,104.0,VALID,0.0,VALID,22.895,VALID,356.0,VALID,0.411,
2011-10-05, 01:39:04,VALID,1009.804,VALID,0.0,VALID,104.0,VALID,0.0,VALID,22.876,VALID,356.0,VALID,0.381,
2011-10-05, 01:40:04,VALID,1009.754,VALID,0.0,VALID,104.0,VALID,0.0,VALID,22.856,VALID,356.0,VALID,0.197,
2011-10-05, 01:41:04,VALID,1009.753,VALID,0.0,VALID,104.0,VALID,0.0,VALID,22.837,VALID,356.0,VALID,0.332,
2011-10-05, 01:42:04,VALID,1009.767,VALID,0.0,VALID,104.0,VALID,0.0,VALID,22.877,VALID,356.0,VALID,0.227,
2011-10-05, 01:43:04,VALID,1009.725,VALID,0.0,VALID,104.0,VALID,0.0,VALID,22.858,VALID,358.0,VALID,0.558,
2011-10-05, 01:44:04,VALID,1009.702,VALID,0.0,VALID,104.0,VALID,0.0,VALID,22.817,VALID,13.0,VALID,0.568,
2011-10-05, 01:45:04,VALID,1009.727,VALID,0.0,VALID,104.0,VALID,0.0,VALID,22.837,VALID,102.0,VALID,1.032,
2011-10-05, 01:46:04,VALID,1009.681,VALID,0.0,VALID,104.0,VALID,0.0,VALID,22.877,VALID,100.0,VALID,0.998,
2011-10-05, 01:47:04,VALID,1009.674,VALID,0.0,VALID,104.0,VALID,0.0,VALID,22.876,VALID,93.0,VALID,1.067,
2011-10-05, 01:48:04,VALID,1009.659,VALID,0.0,VALID,104.0,VALID,0.0,VALID,22.876,VALID,94.0,VALID,0.946,
2011-10-05, 01:49:04,VALID,1009.645,VALID,0.0,VALID,104.0,VALID,0.0,VALID,22.837,VALID,99.0,VALID,0.783,
2011-10-05, 01:50:04,VALID,1009.6,VALID,0.0,VALID,104.0,VALID,0.0,VALID,22.837,VALID,81.0,VALID,0.658,
2011-10-05, 01:51:04,VALID,1009.588,VALID,0.0,VALID,104.0,VALID,0.0,VALID,22.837,VALID,77.0,VALID,0.631,
2011-10-05, 01:52:04,VALID,1009.605,VALID,0.0,VALID,104.0,VALID,0.0,VALID,22.837,VALID,78.0,VALID,0.545,
2011-10-05, 01:53:04,VALID,1009.552,VALID,0.0,VALID,104.0,VALID,0.0,VALID,22.856,VALID,74.0,VALID,0.479,
2011-10-05, 01:54:04,VALID,1009.52,VALID,0.0,VALID,104.0,VALID,0.0,VALID,22.856,VALID,60.0,VALID,0.598,
2011-10-05, 01:55:04,VALID,1009.552,VALID,0.0,VALID,104.0,VALID,0.0,VALID,22.817,VALID,50.0,VALID,0.302,
2011-10-05, 01:56:04,VALID,1009.539,VALID,0.0,VALID,104.0,VALID,0.0,VALID,22.819,VALID,50.0,VALID,0.101,
2011-10-05, 01:57:04,VALID,1009.517,VALID,0.0,VALID,104.0,VALID,0.0,VALID,22.798,VALID,50.0,VALID,0.275,
2011-10-05, 01:58:04,VALID,1009.52,VALID,0.0,VALID,104.0,VALID,0.0,VALID,22.798,VALID,50.0,VALID,0.498,
2011-10-05, 01:59:04,VALID,1009.533,VALID,0.0,VALID,104.0,VALID,0.0,VALID,22.798,VALID,59.0,VALID,1.17,
2011-10-05, 02:00:04,VALID,1009.534,VALID,0.0,VALID,104.0,VALID,0.0,VALID,22.778,VALID,83.0,VALID,0.929,
2011-10-05, 02:01:04,VALID,1009.509,VALID,0.0,VALID,104.0,VALID,0.0,VALID,22.778,VALID,75.0,VALID,0.884,
2011-10-05, 02:02:04,VALID,1009.511,VALID,0.0,VALID,104.0,VALID,0.0,VALID,22.798,VALID,76.0,VALID,0.925,
2011-10-05, 02:03:04,VALID,1009.484,VALID,0.0,VALID,104.0,VALID,0.0,VALID,22.798,VALID,76.0,VALID,0.96,
2011-10-05, 02:04:04,VALID,1009.489,VALID,0.0,VALID,104.0,VALID,0.0,VALID,22.798,VALID,55.0,VALID,0.832,
2011-10-05, 02:05:04,VALID,1009.469,VALID,0.0,VALID,104.0,VALID,0.0,VALID,22.798,VALID,54.0,VALID,1.039,
2011-10-05, 02:06:04,VALID,1009.466,VALID,0.0,VALID,104.0,VALID,0.0,VALID,22.778,VALID,54.0,VALID,0.579,
2011-10-05, 02:07:04,VALID,1009.433,VALID,0.0,VALID,104.0,VALID,0.0,VALID,22.759,VALID,43.0,VALID,0.649,
2011-10-05, 02:08:04,VALID,1009.431,VALID,0.0,VALID,104.0,VALID,0.0,VALID,22.759,VALID,36.0,VALID,0.497,
2011-10-05, 02:09:04,VALID,1009.424,VALID,0.0,VALID,104.0,VALID,0.0,VALID,22.739,VALID,36.0,VALID,0.006,
2011-10-05, 02:10:04,VALID,1009.431,VALID,0.0,VALID,104.0,VALID,0.0,VALID,22.739,VALID,36.0,VALID,0.192,
2011-10-05, 02:11:04,VALID,1009.416,VALID,0.0,VALID,104.0,VALID,0.0,VALID,22.739,VALID,36.0,VALID,0.133,
2011-10-05, 02:12:04,VALID,1009.418,VALID,0.5,VALID,104.0,VALID,0.0,VALID,22.739,VALID,36.0,VALID,0.273,
2011-10-05, 02:13:04,VALID,1009.417,VALID,0.0,VALID,104.0,VALID,0.0,VALID,22.739,VALID,36.0,VALID,0.464,
2011-10-05, 02:14:04,VALID,1009.417,VALID,0.0,VALID,104.0,VALID,0.0,VALID,22.72,VALID,37.0,VALID,0.638,
2011-10-05, 02:15:04,VALID,1009.404,VALID,0.0,VALID,104.0,VALID,0.0,VALID,22.72,VALID,39.0,VALID,0.618,
2011-10-05, 02:16:04,VALID,1009.418,VALID,0.0,VALID,104.0,VALID,0.0,VALID,22.739,VALID,62.0,VALID,0.934,
2011-10-05, 02:17:04,VALID,1009.439,VALID,0.0,VALID,104.0,VALID,0.0,VALID,22.759,VALID,56.0,VALID,0.706,
2011-10-05, 02:18:04,VALID,1009.406,VALID,0.0,VALID,104.0,VALID,0.0,VALID,22.739,VALID,70.0,VALID,0.892,
2011-10-05, 02:19:04,VALID,1009.376,VALID,0.0,VALID,104.0,VALID,0.0,VALID,22.738,VALID,70.0,VALID,0.906,
2011-10-05, 02:20:04,VALID,1009.379,VALID,0.0,VALID,104.0,VALID,0.0,VALID,22.759,VALID,46.0,VALID,0.743,
2011-10-05, 02:21:04,VALID,1009.353,VALID,0.0,VALID,104.0,VALID,0.0,VALID,22.759,VALID,70.0,VALID,0.634,
2011-10-05, 02:22:04,VALID,1009.392,VALID,0.0,VALID,104.0,VALID,0.0,VALID,22.759,VALID,66.0,VALID,0.765,
2011-10-05, 02:23:04,VALID,1009.357,VALID,0.0,VALID,104.0,VALID,0.0,VALID,22.738,VALID,57.0,VALID,0.648,
2011-10-05, 02:24:04,VALID,1009.366,VALID,0.0,VALID,104.0,VALID,0.0,VALID,22.739,VALID,74.0,VALID,0.642,
2011-10-05, 02:25:04,VALID,1009.389,VALID,0.0,VALID,104.0,VALID,0.0,VALID,22.72,VALID,59.0,VALID,1.078,
2011-10-05, 02:26:04,VALID,1009.371,VALID,0.0,VALID,104.0,VALID,0.0,VALID,22.72,VALID,42.0,VALID,1.022,
2011-10-05, 02:27:04,VALID,1009.385,VALID,0.0,VALID,104.0,VALID,0.0,VALID,22.72,VALID,44.0,VALID,0.473,
2011-10-05, 02:28:04,VALID,1009.402,VALID,0.0,VALID,104.0,VALID,0.0,VALID,22.72,VALID,44.0,VALID,0.368,
2011-10-05, 02:29:04,VALID,1009.405,VALID,0.0,VALID,104.0,VALID,0.0,VALID,22.72,VALID,44.0,VALID,0.494,
2011-10-05, 02:30:04,VALID,1009.378,VALID,0.0,VALID,104.0,VALID,0.0,VALID,22.7,VALID,42.0,VALID,0.328,
2011-10-05, 02:31:04,VALID,1009.372,VALID,0.0,VALID,104.0,VALID,0.0,VALID,22.7,VALID,38.0,VALID,0.645,
2011-10-05, 02:32:04,VALID,1009.368,VALID,0.0,VALID,104.0,VALID,0.0,VALID,22.681,VALID,53.0,VALID,0.922,
2011-10-05, 02:33:04,VALID,1009.342,VALID,0.0,VALID,104.0,VALID,0.0,VALID,22.681,VALID,24.0,VALID,0.859,
2011-10-05, 02:34:04,VALID,1009.359,VALID,0.0,VALID,104.0,VALID,0.0,VALID,22.661,VALID,51.0,VALID,0.908,
2011-10-05, 02:35:04,VALID,1009.367,VALID,0.0,VALID,104.0,VALID,0.0,VALID,22.64,VALID,29.0,VALID,0.961,
2011-10-05, 02:36:04,VALID,1009.417,VALID,0.0,VALID,104.0,VALID,0.0,VALID,22.661,VALID,33.0,VALID,0.736,
2011-10-05, 02:37:04,VALID,1009.434,VALID,0.0,VALID,104.0,VALID,0.0,VALID,22.642,VALID,45.0,VALID,0.879,
2011-10-05, 02:38:04,VALID,1009.457,VALID,0.0,VALID,104.0,VALID,0.0,VALID,22.661,VALID,49.0,VALID,0.552,
2011-10-05, 02:39:04,VALID,1009.472,VALID,0.0,VALID,104.0,VALID,0.112,VALID,22.681,VALID,93.0,VALID,1.61,
2011-10-05, 02:40:04,VALID,1009.518,VALID,0.0,VALID,104.0,VALID,0.0,VALID,22.66,VALID,59.0,VALID,0.713,
2011-10-05, 02:41:04,VALID,1009.515,VALID,0.0,VALID,104.0,VALID,0.0,VALID,22.66,VALID,51.0,VALID,0.609,
2011-10-05, 02:42:04,VALID,1009.506,VALID,0.0,VALID,104.0,VALID,0.0,VALID,22.681,VALID,48.0,VALID,0.488,
2011-10-05, 02:43:04,VALID,1009.519,VALID,0.0,VALID,104.0,VALID,0.0,VALID,22.661,VALID,63.0,VALID,0.672,
2011-10-05, 02:44:04,VALID,1009.496,VALID,0.0,VALID,104.0,VALID,0.0,VALID,22.661,VALID,59.0,VALID,0.626,
2011-10-05, 02:45:04,VALID,1009.487,VALID,0.0,VALID,104.0,VALID,0.0,VALID,22.661,VALID,29.0,VALID,0.99,
2011-10-05, 02:46:04,VALID,1009.469,VALID,0.0,VALID,104.0,VALID,0.0,VALID,22.661,VALID,37.0,VALID,1.205,
2011-10-05, 02:47:04,VALID,1009.477,VALID,0.0,VALID,104.0,VALID,0.112,VALID,22.661,VALID,43.0,VALID,0.58,
2011-10-05, 02:48:04,VALID,1009.497,VALID,0.0,VALID,104.0,VALID,0.0,VALID,22.661,VALID,78.0,VALID,1.25,
2011-10-05, 02:49:04,VALID,1009.536,VALID,0.0,VALID,104.0,VALID,0.112,VALID,22.661,VALID,99.0,VALID,1.033,
2011-10-05, 02:50:04,VALID,1009.52,VALID,0.0,VALID,104.0,VALID,0.112,VALID,22.66,VALID,86.0,VALID,1.501,
2011-10-05, 02:51:04,VALID,1009.521,VALID,0.0,VALID,104.0,VALID,0.0,VALID,22.66,VALID,87.0,VALID,1.442,
2011-10-05, 02:52:04,VALID,1009.516,VALID,0.0,VALID,104.0,VALID,0.0,VALID,22.661,VALID,82.0,VALID,1.134,
2011-10-05, 02:53:04,VALID,1009.507,VALID,0.0,VALID,104.0,VALID,0.0,VALID,22.661,VALID,77.0,VALID,1.202,
2011-10-05, 02:54:04,VALID,1009.521,VALID,0.0,VALID,104.0,VALID,0.0,VALID,22.661,VALID,78.0,VALID,1.275,
2011-10-05, 02:55:04,VALID,1009.531,VALID,0.0,VALID,104.0,VALID,0.0,VALID,22.661,VALID,76.0,VALID,0.939,
2011-10-05, 02:56:04,VALID,1009.528,VALID,0.0,VALID,104.0,VALID,0.0,VALID,22.681,VALID,63.0,VALID,0.642,
2011-10-05, 02:57:04,VALID,1009.55,VALID,0.0,VALID,104.0,VALID,0.0,VALID,22.681,VALID,73.0,VALID,1.064,
2011-10-05, 02:58:04,VALID,1009.544,VALID,0.0,VALID,104.0,VALID,0.0,VALID,22.66,VALID,91.0,VALID,1.536,
2011-10-05, 02:59:04,VALID,1009.566,VALID,0.0,VALID,104.0,VALID,0.0,VALID,22.661,VALID,85.0,VALID,1.411,
2011-10-05, 03:00:04,VALID,1009.599,VALID,0.0,VALID,104.0,VALID,0.0,VALID,22.681,VALID,69.0,VALID,1.116,
2011-10-05, 03:01:04,VALID,1009.589,VALID,0.0,VALID,104.0,VALID,0.0,VALID,22.661,VALID,68.0,VALID,1.042,
2011-10-05, 03:02:04,VALID,1009.579,VALID,0.0,VALID,104.0,VALID,0.0,VALID,22.64,VALID,70.0,VALID,0.845,
2011-10-05, 03:03:04,VALID,1009.596,VALID,0.0,VALID,104.0,VALID,0.0,VALID,22.661,VALID,46.0,VALID,1.277,
2011-10-05, 03:04:04,VALID,1009.585,VALID,0.0,VALID,104.0,VALID,0.112,VALID,22.64,VALID,39.0,VALID,1.221,
2011-10-05, 03:05:04,VALID,1009.555,VALID,0.0,VALID,104.0,VALID,0.0,VALID,22.642,VALID,37.0,VALID,0.612,
2011-10-05, 03:06:04,VALID,1009.564,VALID,0.0,VALID,104.0,VALID,0.0,VALID,22.642,VALID,43.0,VALID,0.529,
2011-10-05, 03:07:04,VALID,1009.566,VALID,0.0,VALID,104.0,VALID,0.112,VALID,22.64,VALID,16.0,VALID,0.748,
2011-10-05, 03:08:04,VALID,1009.59,VALID,0.0,VALID,104.0,VALID,0.0,VALID,22.661,VALID,51.0,VALID,0.739,
2011-10-05, 03:09:04,VALID,1009.591,VALID,0.0,VALID,104.0,VALID,0.0,VALID,22.64,VALID,44.0,VALID,0.986,
2011-10-05, 03:10:04,VALID,1009.582,VALID,0.0,VALID,104.0,VALID,0.112,VALID,22.661,VALID,29.0,VALID,0.926,
2011-10-05, 03:11:04,VALID,1009.574,VALID,0.0,VALID,104.0,VALID,0.112,VALID,22.661,VALID,34.0,VALID,1.959,
2011-10-05, 03:12:04,VALID,1009.538,VALID,0.0,VALID,104.0,VALID,0.112,VALID,22.661,VALID,24.0,VALID,0.503,
2011-10-05, 03:13:04,VALID,1009.553,VALID,0.0,VALID,104.0,VALID,0.112,VALID,22.661,VALID,24.0,VALID,0.622,
2011-10-05, 03:14:04,VALID,1009.507,VALID,0.0,VALID,104.0,VALID,0.0,VALID,22.681,VALID,25.0,VALID,0.923,
2011-10-05, 03:15:04,VALID,1009.517,VALID,0.0,VALID,104.0,VALID,0.0,VALID,22.681,VALID,11.0,VALID,0.716,
2011-10-05, 03:16:04,VALID,1009.519,VALID,0.0,VALID,104.0,VALID,0.0,VALID,22.66,VALID,23.0,VALID,0.759,
2011-10-05, 03:17:04,VALID,1009.534,VALID,0.0,VALID,104.0,VALID,0.112,VALID,22.681,VALID,24.0,VALID,0.395,
2011-10-05, 03:18:04,VALID,1009.499,VALID,0.0,VALID,104.0,VALID,0.0,VALID,22.681,VALID,25.0,VALID,0.18,
2011-10-05, 03:19:04,VALID,1009.531,VALID,0.0,VALID,104.0,VALID,0.0,VALID,22.681,VALID,32.0,VALID,0.794,
2011-10-05, 03:20:04,VALID,1009.524,VALID,0.0,VALID,104.0,VALID,0.0,VALID,22.681,VALID,20.0,VALID,0.562,
2011-10-05, 03:21:04,VALID,1009.545,VALID,0.0,VALID,104.0,VALID,0.112,VALID,22.661,VALID,51.0,VALID,0.871,
2011-10-05, 03:22:04,VALID,1009.518,VALID,0.0,VALID,104.0,VALID,0.0,VALID,22.661,VALID,29.0,VALID,1.416,
2011-10-05, 03:23:04,VALID,1009.526,VALID,0.0,VALID,104.0,VALID,0.112,VALID,22.681,VALID,38.0,VALID,1.013,
2011-10-05, 03:24:04,VALID,1009.506,VALID,0.0,VALID,104.0,VALID,0.112,VALID,22.681,VALID,18.0,VALID,0.659,
2011-10-05, 03:25:04,VALID,1009.453,VALID,0.0,VALID,104.0,VALID,0.0,VALID,22.661,VALID,41.0,VALID,0.641,
2011-10-05, 03:26:04,VALID,1009.463,VALID,0.0,VALID,104.0,VALID,0.0,VALID,22.661,VALID,38.0,VALID,0.449,
2011-10-05, 03:27:04,VALID,1009.412,VALID,0.0,VALID,104.0,VALID,0.0,VALID,22.661,VALID,32.0,VALID,1.118,
2011-10-05, 03:28:04,VALID,1009.411,VALID,0.0,VALID,104.0,VALID,0.0,VALID,22.661,VALID,44.0,VALID,0.116,
2011-10-05, 03:29:04,VALID,1009.376,VALID,0.0,VALID,104.0,VALID,0.0,VALID,22.661,VALID,44.0,VALID,0.114,
2011-10-05, 03:30:04,VALID,1009.362,VALID,0.0,VALID,104.0,VALID,0.0,VALID,22.661,VALID,349.0,VALID,0.65,
2011-10-05, 03:31:04,VALID,1009.367,VALID,0.0,VALID,104.0,VALID,0.0,VALID,22.661,VALID,346.0,VALID,1.351,
2011-10-05, 03:32:04,VALID,1009.394,VALID,0.0,VALID,104.0,VALID,0.0,VALID,22.661,VALID,349.0,VALID,0.429,
2011-10-05, 03:33:04,VALID,1009.376,VALID,0.0,VALID,104.0,VALID,0.0,VALID,22.661,VALID,351.0,VALID,0.394,
2011-10-05, 03:34:04,VALID,1009.417,VALID,0.0,VALID,104.0,VALID,0.112,VALID,22.661,VALID,352.0,VALID,0.528,
2011-10-05, 03:35:04,VALID,1009.407,VALID,0.0,VALID,104.0,VALID,0.112,VALID,22.661,VALID,352.0,VALID,0.214,
2011-10-05, 03:36:04,VALID,1009.384,VALID,0.0,VALID,104.0,VALID,0.0,VALID,22.64,VALID,350.0,VALID,0.5,
2011-10-05, 03:37:04,VALID,1009.372,VALID,0.0,VALID,104.0,VALID,0.112,VALID,22.661,VALID,353.0,VALID,0.294,
2011-10-05, 03:38:04,VALID,1009.363,VALID,0.0,VALID,104.0,VALID,0.0,VALID,22.64,VALID,346.0,VALID,0.745,
2011-10-05, 03:39:04,VALID,1009.363,VALID,0.0,VALID,104.0,VALID,0.0,VALID,22.661,VALID,342.0,VALID,0.423,
2011-10-05, 03:40:04,VALID,1009.379,VALID,0.0,VALID,104.0,VALID,0.0,VALID,22.64,VALID,338.0,VALID,0.561,
2011-10-05, 03:41:04,VALID,1009.345,VALID,0.0,VALID,104.0,VALID,0.112,VALID,22.681,VALID,341.0,VALID,0.483,
2011-10-05, 03:42:04,VALID,1009.346,VALID,0.0,VALID,104.0,VALID,0.0,VALID,22.661,VALID,350.0,VALID,0.448,
2011-10-05, 03:43:04,VALID,1009.34,VALID,0.0,VALID,104.0,VALID,0.112,VALID,22.661,VALID,347.0,VALID,0.442,